[[{"header":{"parameterUnit":"m.s-1","parameterCategory":1,"la1":30.2991,"la2":30.254,"lo1":-89.0895,"lo2":-89.0444,"dy":0.0017,"dx":0.0017,"nx":28,"ny":28,"refTime":"2024-12-14T09:00:00:Z","depth":0,"parameterNumber":2,"parameterNumberName":"U-component_of_WINDS"},"data":[0,0,0,0,0,0,0,0,0,0,0,0,0,0,0,0,0,0,0,0,0,0,0,0,0,0,0,0,0,0,0,0,0,0,0,0,0,0,0,0,0,0,0,0,0,0,0,0,0,0,0,0,0,0,0,0,0,0,-6.2868,-6.2869,0,-6.2958,-6.2959,-6.2961,-6.281,-6.2805,-6.28,-6.2795,-6.289,-6.2898,-6.2905,0,0,0,0,0,0,0,0,0,0,0,0,0,-6.2566,-6.2573,-6.2868,-6.2869,-6.287,-6.2958,-6.296,-6.2961,-6.2811,-6.2805,-6.2799,-6.2793,-6.2888,-6.2897,-6.2905,0,0,0,0,0,0,0,0,0,0,0,0,0,-6.2681,-6.2575,-6.2868,-6.2806,-6.2801,-6.2958,-6.296,-6.2961,-6.2813,-6.2805,-6.2797,-6.279,-6.2885,-6.2896,-6.2907,-6.3128,0,0,-6.294,-6.2945,0,0,0,0,0,0,0,0,-6.2675,-6.2692,-6.2814,-6.2811,-6.2806,-6.2865,-6.2888,-6.3017,-6.2815,-6.2809,-6.2795,-6.2786,-6.2888,-6.2899,-6.2933,-6.3133,-6.3137,-6.2941,-6.2948,-6.2953,-6.2956,0,0,0,0,0,0,0,-6.2667,-6.2688,-6.2904,-6.2816,-6.2811,-6.2774,-6.2782,-6.2912,-6.2891,-6.2808,-6.2798,-6.281,-6.2885,-6.2922,-6.2934,-6.3138,-6.2941,-6.2951,-6.2957,-6.2962,-6.3523,-6.3531,0,0,0,0,0,0,-6.2667,-6.2682,-6.2901,-6.2906,-6.272,-6.2786,-6.2795,-6.2854,-6.2889,-6.2887,-6.2817,-6.2803,-6.2907,-6.2921,-6.2937,-6.3198,-6.2952,-6.2963,-6.2969,-6.3515,-6.3525,-6.3534,0,0,0,0,0,0,-6.2661,-6.2687,-6.2897,-6.2791,-6.2815,-6.2799,-6.2867,-6.286,-6.2897,-6.2895,-6.2891,-6.2859,-6.2902,-6.2921,-6.3081,-6.3199,-6.2968,-6.2978,-6.3505,-6.3518,-6.353,-6.3723,0,0,0,0,0,0,-6.2653,-6.2686,-6.277,-6.2794,-6.2821,-6.3041,-6.2874,-6.2867,-6.2916,-6.2899,-6.2934,-6.2932,-6.2897,-6.3066,-6.3092,-6.321,-6.2986,-6.3495,-6.3511,-6.3526,-6.3706,-6.374,-6.377,0,0,0,0,0,-6.2642,-6.2822,-6.2775,-6.2803,-6.2926,-6.3048,-6.3063,-6.3019,-6.2926,-6.3011,-6.3009,-6.2931,-6.3182,-6.3083,-6.3112,-6.3235,-6.3487,-6.3506,-6.3525,-6.3691,-6.3733,-6.3769,0,0,0,0,0,0,-6.2813,-6.2824,-6.2772,-6.2965,-6.3007,-6.3022,-6.3127,-6.3065,-6.3135,-6.3116,-6.3059,-6.3068,-6.324,-6.3253,-6.3143,-6.345,-6.3319,-6.3344,-6.3436,-6.3476,-6.3507,-6.3501,-6.2995,0,0,0,0,0,-6.2873,-6.297,-6.2974,-6.3144,-6.3167,-6.3144,-6.3196,-6.3158,-6.3199,-6.3216,-6.3226,-6.327,-6.3357,-6.3417,-6.3498,-6.3706,-6.3712,-6.3805,-6.3837,-6.3863,-6.3886,-6.3996,-6.4038,-6.3596,-6.3596,-6.3595,0,0,-6.2998,-6.3016,-6.3081,-6.3179,-6.3206,-6.3309,-6.316,-6.3275,-6.3351,-6.3234,-6.3385,-6.3394,-6.3439,-6.3624,-6.3706,-6.364,-6.4009,-6.3887,-6.3908,-6.3917,-6.402,-6.4062,-6.4099,-6.3609,-6.3606,-6.3604,0,0,-6.3278,-6.3301,-6.3445,-6.3475,-6.3519,-6.3502,-6.3536,-6.3562,-6.3563,-6.3714,-6.3628,-6.3717,-6.387,-6.3905,-6.3943,-6.4235,-6.4166,-6.4263,-6.4431,-6.4539,-6.4574,-6.4604,-6.4709,-6.4747,-6.4286,-6.4286,-6.4287,0,-6.3428,-6.3579,-6.3526,-6.3647,-6.3693,-6.359,-6.3734,-6.3767,-6.3836,-6.3869,-6.3794,-6.3984,-6.4007,-6.4198,-6.4269,-6.4303,-6.4341,-6.426,-6.4573,-6.4603,-6.4631,-6.473,-6.4769,-6.4298,-6.4297,-6.4295,-6.4294,0,-6.3761,-6.3867,-6.3977,-6.4045,-6.4102,-6.4235,-6.4203,-6.4267,-6.4224,-6.4216,-6.437,-6.4394,-6.4477,-6.452,-6.4479,-6.4706,-6.4663,-6.4582,-6.4449,-6.4686,-6.4777,-6.4815,-6.4315,-6.431,-6.4307,-6.4304,0,0,-6.4153,-6.4188,-6.423,-6.4259,-6.4299,-6.438,-6.4507,-6.4588,-6.4644,-6.4695,-6.48,-6.4932,-6.4856,-6.4899,-6.4861,-6.4956,-6.5186,-6.4863,-6.4863,-6.4922,-6.5437,-6.5498,-6.5543,-6.514,-6.5147,-6.5152,-6.5433,0,-6.4431,-6.465,-6.4606,-6.4821,-6.4918,-6.4821,-6.4932,-6.4968,-6.4964,-6.5045,-6.5039,-6.5133,-6.5026,-6.5051,-6.5141,-6.5139,-6.5289,-6.5118,-6.5238,-6.5243,-6.523,-6.5591,-6.5656,-6.592,-6.5468,-6.5474,-6.5479,0,-6.4786,-6.4849,-6.5073,-6.5096,-6.5135,-6.5236,-6.5305,-6.5385,-6.5424,-6.5413,-6.5461,-6.5405,-6.5531,-6.5396,-6.557,-6.5455,-6.5501,-6.5507,-6.5516,-6.5526,-6.5376,-6.5611,-6.6003,-6.6043,-6.5535,-6.553,-6.5526,0,-6.5049,-6.519,-6.5341,-6.5369,-6.54,-6.5473,-6.5489,-6.5521,-6.5572,-6.5633,-6.5666,-6.5742,-6.5784,-6.5843,-6.5809,-6.5714,-6.5989,-6.585,-6.5984,-6.5985,-6.6047,-6.6044,-6.6453,-6.6077,-6.6076,-6.6075,-6.6074,0,-6.5365,-6.5506,-6.546,-6.5554,-6.5708,-6.5656,-6.5811,-6.5816,-6.5845,-6.5937,-6.5858,-6.5947,-6.5896,-6.5982,-6.5956,-6.6103,-6.6122,-6.6118,-6.6109,-6.6125,-6.6126,-6.6155,-6.6136,-6.6086,-6.6083,-6.6081,-6.6079,0,-6.5686,-6.566,-6.582,-6.5835,-6.5843,-6.5956,-6.5969,-6.6057,-6.6045,-6.6164,-6.6188,-6.6171,-6.6266,-6.6238,-6.6342,-6.6324,-6.6511,-6.6479,-6.6498,-6.649,-6.6625,-6.6613,-6.7067,-6.7124,-6.6712,-6.6715,-6.6719,0,-6.589,-6.5996,-6.6022,-6.6078,-6.61,-6.6192,-6.6243,-6.6196,-6.6252,-6.6304,-6.6386,-6.6474,-6.6543,-6.67,-6.6697,-6.6776,-6.6745,-6.6899,-6.6757,-6.6769,-6.6747,-6.6742,-6.6752,-6.6928,-6.6932,-6.6936,-6.6939,0,-6.6254,-6.6235,-6.6312,-6.6385,-6.6448,-6.6503,-6.6551,-6.6602,-6.6557,-6.6625,-6.6721,-6.6775,-6.688,-6.6969,-6.704,-6.7057,-6.6992,-6.6984,-6.7019,-6.7037,-6.7043,-6.7041,-6.6575,-6.6974,-6.6971,-6.6968,-6.6966,-6.6965,-6.6522,-6.6611,-6.6644,-6.6731,-6.6762,-6.6809,-6.6891,-6.6889,-6.6968,-6.705,-6.7017,-6.7128,-6.7163,-6.7252,-6.7279,-6.7365,-6.7306,-6.7357,-6.737,-6.7383,-6.74,-6.7029,-6.7378,-6.7377,-6.7376,-6.7375,-6.7374,0,-6.6881,-6.6897,-6.6978,-6.7047,-6.7117,-6.7047,-6.7097,-6.7159,-6.7258,-6.7296,-6.7364,-6.7475,-6.7561,-6.7564,-6.7644,-6.7712,-6.7684,-6.7735,-6.7729,-6.7734,-6.7448,-6.741,-6.7756,-6.7756,-6.7756,-6.7756,-6.7756,-6.7756,-6.7077,-6.7224,-6.721,-6.7371,-6.7385,-6.7493,-6.7527,-6.7569,-6.7599,-6.7726,-6.7797,-6.7797,-6.7822,-6.7902,-6.7978,-6.7976,-6.801,-6.8072,-6.806,-6.7792,-6.7755,-6.7718,-6.7682,-6.808,-6.808,-6.8338,-6.834,-6.8342]},{"header":{"parameterUnit":"m.s-1","parameterCategory":1,"la1":30.2991,"la2":30.254,"lo1":-89.0895,"lo2":-89.0444,"dy":0.0017,"dx":0.0017,"nx":28,"ny":28,"refTime":"2024-12-14T09:00:00:Z","depth":0,"parameterNumber":3,"parameterNumberName":"V-component_of_WINDS"},"data":[0,0,0,0,0,0,0,0,0,0,0,0,0,0,0,0,0,0,0,0,0,0,0,0,0,0,0,0,0,0,0,0,0,0,0,0,0,0,0,0,0,0,0,0,0,0,0,0,0,0,0,0,0,0,0,0,0,0,-1.9674,-1.9674,0,-1.9687,-1.9687,-1.9687,-1.9668,-1.9668,-1.9667,-1.9666,-1.968,-1.9681,-1.9682,0,0,0,0,0,0,0,0,0,0,0,0,0,-1.963,-1.9631,-1.9674,-1.9674,-1.9674,-1.9687,-1.9687,-1.9687,-1.9669,-1.9668,-1.9667,-1.9666,-1.968,-1.9681,-1.9682,0,0,0,0,0,0,0,0,0,0,0,0,0,-1.9647,-1.9632,-1.9673,-1.9666,-1.9666,-1.9687,-1.9687,-1.9687,-1.9669,-1.9668,-1.9667,-1.9666,-1.9679,-1.9681,-1.9682,-1.9712,0,0,-1.9687,-1.9688,0,0,0,0,0,0,0,0,-1.9646,-1.9649,-1.9667,-1.9667,-1.9666,-1.9675,-1.9677,-1.9695,-1.9669,-1.9668,-1.9666,-1.9665,-1.9679,-1.9681,-1.9685,-1.9712,-1.9713,-1.9687,-1.9688,-1.9689,-1.9689,0,0,0,0,0,0,0,-1.9645,-1.9648,-1.9679,-1.9667,-1.9667,-1.9662,-1.9663,-1.968,-1.9679,-1.9668,-1.9666,-1.9668,-1.9679,-1.9684,-1.9686,-1.9713,-1.9687,-1.9688,-1.9689,-1.969,-1.9762,-1.9763,0,0,0,0,0,0,-1.9645,-1.9647,-1.9678,-1.9679,-1.9653,-1.9663,-1.9665,-1.9673,-1.9679,-1.9678,-1.9669,-1.9667,-1.9682,-1.9684,-1.9686,-1.9719,-1.9689,-1.969,-1.9691,-1.9761,-1.9763,-1.9764,0,0,0,0,0,0,-1.9644,-1.9648,-1.9678,-1.9663,-1.9666,-1.9665,-1.9675,-1.9674,-1.9679,-1.968,-1.9679,-1.9675,-1.9681,-1.9684,-1.9705,-1.9719,-1.9691,-1.9692,-1.976,-1.9762,-1.9763,-1.9786,0,0,0,0,0,0,-1.9643,-1.9648,-1.9659,-1.9663,-1.9667,-1.9697,-1.9676,-1.9675,-1.9682,-1.968,-1.9685,-1.9685,-1.9681,-1.9703,-1.9706,-1.9721,-1.9693,-1.9759,-1.9761,-1.9763,-1.9784,-1.9789,-1.9792,0,0,0,0,0,-1.9641,-1.9666,-1.966,-1.9664,-1.9681,-1.9698,-1.97,-1.9695,-1.9683,-1.9694,-1.9694,-1.9685,-1.9717,-1.9705,-1.9709,-1.9724,-1.9758,-1.976,-1.9763,-1.9783,-1.9788,-1.9792,0,0,0,0,0,0,-1.9664,-1.9666,-1.966,-1.9686,-1.9692,-1.9695,-1.9709,-1.9701,-1.971,-1.9708,-1.9701,-1.9702,-1.9724,-1.9727,-1.9713,-1.9752,-1.9736,-1.9739,-1.9749,-1.9754,-1.9758,-1.9757,-1.9694,0,0,0,0,0,-1.9672,-1.9685,-1.9686,-1.9709,-1.9712,-1.971,-1.9717,-1.9712,-1.9718,-1.9721,-1.9722,-1.9728,-1.9739,-1.9747,-1.9758,-1.9785,-1.9785,-1.9797,-1.9801,-1.9804,-1.9807,-1.9819,-1.9824,-1.9771,-1.9771,-1.9771,0,0,-1.9688,-1.9691,-1.97,-1.9714,-1.9718,-1.9731,-1.9712,-1.9728,-1.9737,-1.9723,-1.9742,-1.9744,-1.975,-1.9773,-1.9784,-1.9776,-1.9821,-1.9807,-1.981,-1.9811,-1.9822,-1.9827,-1.9832,-1.9773,-1.9773,-1.9773,0,0,-1.9725,-1.9729,-1.9748,-1.9752,-1.9758,-1.9756,-1.976,-1.9764,-1.9764,-1.9784,-1.9773,-1.9784,-1.9804,-1.9808,-1.9813,-1.985,-1.9841,-1.9854,-1.9874,-1.9886,-1.989,-1.9894,-1.9906,-1.991,-1.9856,-1.9856,-1.9857,0,-1.9745,-1.9764,-1.9758,-1.9774,-1.978,-1.9767,-1.9785,-1.979,-1.9799,-1.9803,-1.9794,-1.9818,-1.9821,-1.9844,-1.9853,-1.9858,-1.9862,-1.9853,-1.989,-1.9894,-1.9897,-1.9908,-1.9913,-1.9858,-1.9858,-1.9858,-1.9857,0,-1.9788,-1.9801,-1.9816,-1.9824,-1.9832,-1.9849,-1.9844,-1.9853,-1.9847,-1.9846,-1.9865,-1.9868,-1.9879,-1.9884,-1.988,-1.9907,-1.9901,-1.9892,-1.9875,-1.9904,-1.9914,-1.9918,-1.986,-1.9859,-1.9859,-1.9859,0,0,-1.9839,-1.9843,-1.9848,-1.9851,-1.9856,-1.9866,-1.9882,-1.9892,-1.9898,-1.9905,-1.9917,-1.9934,-1.9925,-1.993,-1.9926,-1.9937,-1.9963,-1.9925,-1.9925,-1.9931,-1.9992,-1.9998,-2.0004,-1.9958,-1.9959,-1.9959,-1.9991,0,-1.9874,-1.9901,-1.9896,-1.9922,-1.9934,-1.9921,-1.9935,-1.9939,-1.9938,-1.9948,-1.9947,-1.9958,-1.9945,-1.9948,-1.9959,-1.9958,-1.9975,-1.9956,-1.9968,-1.9969,-1.9966,-2.0009,-2.0016,-2.0046,-1.9995,-1.9996,-1.9996,0,-1.9919,-1.9927,-1.9954,-1.9955,-1.996,-1.9972,-1.998,-1.999,-1.9994,-1.9992,-1.9997,-1.999,-2.0005,-1.9989,-2.0009,-1.9996,-2.0,-2.0001,-2.0002,-2.0002,-1.9984,-2.0009,-2.0056,-2.006,-2.0003,-2.0002,-2.0002,0,-1.9952,-1.9969,-1.9987,-1.999,-1.9993,-2.0001,-2.0003,-2.0006,-2.0012,-2.0018,-2.0022,-2.003,-2.0035,-2.0041,-2.0036,-2.0025,-2.0056,-2.004,-2.0055,-2.0055,-2.0061,-2.0061,-2.0108,-2.0066,-2.0066,-2.0066,-2.0066,0,-1.9991,-2.0008,-2.0001,-2.0012,-2.003,-2.0023,-2.0041,-2.0041,-2.0044,-2.0054,-2.0045,-2.0054,-2.0048,-2.0057,-2.0053,-2.0069,-2.0072,-2.007,-2.0069,-2.0071,-2.0071,-2.0073,-2.007,-2.0067,-2.0067,-2.0067,-2.0067,0,-2.0031,-2.0027,-2.0045,-2.0046,-2.0047,-2.006,-2.006,-2.007,-2.0068,-2.0081,-2.0083,-2.008,-2.009,-2.0086,-2.0097,-2.0095,-2.0115,-2.0112,-2.0113,-2.0112,-2.0126,-2.0124,-2.0175,-2.0181,-2.0137,-2.0138,-2.0138,0,-2.0056,-2.0068,-2.007,-2.0075,-2.0077,-2.0087,-2.0093,-2.0086,-2.0092,-2.0097,-2.0106,-2.0115,-2.0122,-2.0138,-2.0137,-2.0145,-2.0141,-2.0158,-2.0142,-2.0143,-2.0139,-2.0138,-2.0139,-2.0161,-2.0162,-2.0162,-2.0163,0,-2.01,-2.0097,-2.0105,-2.0112,-2.0118,-2.0123,-2.0128,-2.0133,-2.0127,-2.0134,-2.0144,-2.0149,-2.016,-2.0168,-2.0175,-2.0176,-2.0168,-2.0168,-2.0171,-2.0172,-2.0172,-2.0171,-2.0121,-2.0166,-2.0166,-2.0166,-2.0165,-2.0165,-2.0131,-2.0141,-2.0143,-2.0152,-2.0154,-2.0158,-2.0167,-2.0166,-2.0174,-2.0181,-2.0177,-2.0188,-2.0191,-2.0199,-2.0201,-2.021,-2.0203,-2.0208,-2.0209,-2.0211,-2.0212,-2.0172,-2.0211,-2.0211,-2.0211,-2.0211,-2.0211,0,-2.0173,-2.0174,-2.0182,-2.0188,-2.0194,-2.0186,-2.019,-2.0196,-2.0206,-2.0209,-2.0215,-2.0226,-2.0234,-2.0233,-2.024,-2.0247,-2.0243,-2.0249,-2.0248,-2.0248,-2.0218,-2.0214,-2.0252,-2.0252,-2.0252,-2.0252,-2.0252,-2.0252,-2.0196,-2.0211,-2.0208,-2.0224,-2.0225,-2.0235,-2.0238,-2.0241,-2.0243,-2.0255,-2.0262,-2.0261,-2.0262,-2.0269,-2.0276,-2.0276,-2.0278,-2.0285,-2.0283,-2.0255,-2.0251,-2.0247,-2.0242,-2.0286,-2.0286,-2.0312,-2.0312,-2.0313]}]]